Location: Unspecified
(0.0000°N, 0.0000°E)
Time: 23:30:57
(UTC+00:00)

Vanguard 2 - Pass Details

Date: 03 October 2020
Orbit: 554 x 2937 km, 32.9° (Epoch: 28 October)

Event Time Altitude Azimuth Distance (km) Brightness Sun altitude
Rises 18:59:16 0° 216° (SW) 5,723 12.6 -17.6°
Reaches altitude 10° 19:04:48 10° 199° (SSW) 5,116 12.0 -18.9°
Maximum altitude 19:14:39 19° 159° (SSE) 4,872 11.4 -21.4°
Enters shadow 19:23:45 12° 126° (SE) 5,557 11.4 -23.7°
Drops below altitude 10° 19:25:34 10° 121° (ESE) 5,768 - -24.1°
Sets 19:32:24 0° 105° (ESE) 6,697 - -25.8°
